EW7381 Weather Reports


Display with metric or nautical units.
time (UTC)temp
F
wind
direction
speed
MPH
gust
MPH
rain 1hr
in
rain 24hr
in
rain mn
in
humidity
%
barometer
mb
20190822181125 82 196 6.0 11.0 0.00 0.10 0.07 49 873.5
20190822180625 81 146 6.0 12.0 0.00 0.10 0.07 50 873.6
20190822180124 81 165 6.0 12.0 0.00 0.10 0.07 50 873.6
20190822175622 81 202 7.0 12.0 0.00 0.10 0.07 50 873.6
20190822175122 81 198 6.0 11.0 0.00 0.10 0.07 50 873.6
20190822174622 80 150 6.0 11.0 0.00 0.10 0.07 54 873.6
20190822174121 80 183 7.0 11.0 0.00 0.10 0.07 49 873.6
20190822173621 80 151 8.0 12.0 0.00 0.10 0.07 50 873.7
20190822173123 80 179 8.0 12.0 0.00 0.10 0.07 50 873.8
20190822172623 80 139 8.0 13.0 0.00 0.10 0.07 51 873.8
20190822172121 80 153 7.0 13.0 0.00 0.10 0.07 51 873.9
20190822171621 80 194 7.0 12.0 0.00 0.10 0.07 54 873.9
20190822171120 79 188 7.0 13.0 0.00 0.10 0.07 53 873.9
20190822170621 78 179 8.0 16.0 0.00 0.10 0.07 54 874.0
20190822170119 78 147 7.0 16.0 0.00 0.10 0.07 54 874.0
20190822165620 78 144 7.0 11.0 0.00 0.10 0.07 53 874.0
20190822165120 78 146 7.0 11.0 0.00 0.10 0.07 52 874.1
20190822164619 78 195 8.0 11.0 0.00 0.10 0.07 53 874.2
20190822164121 77 140 7.0 11.0 0.00 0.10 0.07 55 874.3
20190822163620 77 143 5.0 11.0 0.00 0.10 0.07 57 874.4
20190822163119 77 137 4.0 11.0 0.00 0.10 0.07 58 874.6
20190822162618 76 180 5.0 8.0 0.00 0.10 0.07 59 874.6
20190822162117 77 148 5.0 9.0 0.00 0.10 0.07 61 874.6
20190822161617 77 138 6.0 11.0 0.00 0.10 0.07 60 874.5
20190822161117 76 146 6.0 11.0 0.00 0.10 0.07 62 874.8
20190822160617 76 167 6.0 9.0 0.00 0.10 0.07 62 874.7
20190822160117 75 146 5.0 9.0 0.00 0.10 0.07 61 874.7
20190822155617 75 225 4.0 7.0 0.00 0.10 0.07 60 874.6
20190822155117 75 231 4.0 7.0 0.00 0.10 0.07 60 874.6
20190822154617 75 231 4.0 7.0 0.00 0.10 0.07 60 874.6
20190822154117 74 231 3.0 7.0 0.00 0.10 0.07 62 874.6
20190822153617 74 231 3.0 8.0 0.00 0.10 0.07 66 874.4
20190822153115 73 231 5.0 8.0 0.00 0.10 0.07 64 874.5
20190822152615 73 231 5.0 8.0 0.00 0.10 0.07 66 874.5
20190822152116 73 231 6.0 10.0 0.00 0.10 0.07 67 874.5
20190822151620 73 234 7.0 10.0 0.00 0.10 0.07 67 874.4
20190822151116 73 259 6.0 10.0 0.00 0.10 0.07 66 874.4
20190822150614 72 259 5.0 9.0 0.00 0.10 0.07 65 874.4
20190822150114 72 227 5.0 9.0 0.00 0.10 0.07 68 874.4
20190822145614 72 253 5.0 9.0 0.00 0.10 0.07 68 874.3
20190822145114 71 235 5.0 8.0 0.00 0.10 0.07 72 874.2
20190822144614 71 260 6.0 8.0 0.00 0.10 0.07 72 874.2
20190822144113 70 257 5.0 8.0 0.00 0.10 0.07 74 874.4
20190822143614 69 248 4.0 7.0 0.00 0.10 0.07 78 874.4
20190822143114 68 232 4.0 6.0 0.00 0.10 0.07 79 874.4
20190822142613 68 232 3.0 6.0 0.00 0.10 0.07 81 874.3
20190822142113 67 232 3.0 5.0 0.00 0.10 0.07 82 874.4
20190822141614 67 232 4.0 6.0 0.00 0.10 0.07 82 874.4
20190822141113 67 232 5.0 10.0 0.00 0.10 0.07 82 874.2
20190822140613 67 232 6.0 10.0 0.00 0.10 0.07 82 874.1
20190822140114 67 226 7.0 9.0 0.00 0.10 0.07 81 874.1
20190822135614 67 229 7.0 10.0 0.00 0.10 0.07 81 874.0
20190822135114 66 229 7.0 11.0 0.00 0.10 0.07 81 874.1
20190822134613 66 223 7.0 11.0 0.00 0.10 0.07 81 874.2
20190822134113 66 263 8.0 11.0 0.00 0.10 0.07 80 874.2
20190822133614 65 264 8.0 13.0 0.00 0.10 0.07 81 874.3
20190822133114 65 256 9.0 13.0 0.00 0.10 0.07 81 874.2
20190822132613 65 284 9.0 14.0 0.00 0.10 0.07 81 874.2
20190822132114 65 269 10.0 14.0 0.00 0.10 0.07 81 874.2
20190822131613 65 261 10.0 14.0 0.00 0.10 0.07 81 874.0
20190822131113 65 271 10.0 14.0 0.00 0.10 0.07 82 874.0
20190822130613 65 263 10.0 13.0 0.00 0.10 0.07 82 873.9
20190822130114 65 260 10.0 13.0 0.00 0.10 0.07 83 873.9
20190822125612 65 283 11.0 14.0 0.00 0.10 0.07 83 874.0
20190822125114 65 286 10.0 14.0 0.00 0.10 0.07 83 873.9
20190822124612 65 292 8.0 12.0 0.00 0.10 0.07 82 873.9
20190822124113 65 300 7.0 10.0 0.00 0.10 0.07 82 873.9
20190822123614 65 298 6.0 9.0 0.00 0.10 0.07 82 873.9
20190822123112 65 296 6.0 9.0 0.00 0.10 0.07 83 873.9
20190822122611 65 306 6.0 9.0 0.00 0.10 0.07 84 873.9
20190822122111 65 269 6.0 9.0 0.00 0.10 0.07 85 874.1
20190822121611 65 253 5.0 9.0 0.00 0.10 0.07 84 874.1
20190822121110 65 193 3.0 5.0 0.00 0.10 0.07 85 874.0
20190822120611 65 193 1.0 5.0 0.00 0.10 0.07 87 874.0
20190822120109 65 193 0.0 0.0 0.00 0.10 0.07 88 874.0
20190822115610 65 193 0.0 0.0 0.00 0.10 0.07 87 873.8
20190822115109 65 193 0.0 0.0 0.00 0.10 0.07 87 873.8
20190822114608 65 193 0.0 0.0 0.00 0.10 0.07 87 873.7
20190822114109 65 193 0.0 0.0 0.00 0.10 0.07 88 873.8
20190822113609 65 193 0.0 1.0 0.00 0.10 0.07 88 873.8
20190822113110 65 193 0.0 1.0 0.00 0.10 0.07 88 873.9
20190822112610 65 193 0.0 0.0 0.00 0.10 0.07 87 873.8
20190822112110 65 193 0.0 0.0 0.00 0.10 0.07 88 873.9
20190822111608 65 193 0.0 0.0 0.00 0.10 0.07 88 873.9
20190822111110 65 193 0.0 2.0 0.00 0.10 0.07 88 874.0
20190822110609 65 193 1.0 7.0 0.00 0.10 0.07 88 873.9
20190822110109 65 193 1.0 7.0 0.00 0.10 0.07 87 873.9
20190822105610 65 193 2.0 7.0 0.00 0.10 0.07 87 874.0
20190822105110 65 193 4.0 7.0 0.00 0.10 0.07 87 874.1
20190822104608 65 192 4.0 7.0 0.00 0.10 0.07 87 874.2
20190822104106 65 190 4.0 7.0 0.00 0.10 0.07 86 874.2
20190822103608 65 160 2.0 6.0 0.00 0.10 0.07 86 874.2
20190822103106 65 160 2.0 5.0 0.00 0.10 0.07 86 874.1
20190822102606 65 160 2.0 5.0 0.00 0.10 0.07 85 874.0
20190822102104 65 160 3.0 6.0 0.00 0.10 0.07 85 874.0
20190822101606 65 160 4.0 7.0 0.00 0.10 0.07 85 874.0
20190822101104 65 160 4.0 7.0 0.00 0.10 0.07 85 874.1
20190822100602 65 161 4.0 7.0 0.00 0.10 0.07 85 873.9
20190822100102 65 162 5.0 11.0 0.00 0.10 0.07 86 874.0
20190822095603 65 183 7.0 11.0 0.00 0.10 0.07 86 874.0
20190822095058 65 197 7.0 11.0 0.00 0.10 0.07 86 874.0
20190822094557 65 173 5.0 11.0 0.00 0.10 0.07 86 874.1
20190822094056 65 153 5.0 9.0 0.00 0.10 0.07 86 874.0
20190822093555 65 169 5.0 9.0 0.00 0.10 0.07 85 873.9
20190822093054 65 150 7.0 11.0 0.00 0.10 0.07 84 873.8
20190822092555 66 134 8.0 12.0 0.00 0.10 0.07 83 874.0
20190822092055 66 130 8.0 12.0 0.00 0.10 0.07 82 874.0
20190822091554 67 138 8.0 12.0 0.00 0.10 0.07 81 873.8
20190822091053 67 129 8.0 12.0 0.00 0.10 0.07 80 873.9
20190822090551 68 140 7.0 11.0 0.00 0.10 0.07 79 873.8
20190822090052 68 167 6.0 11.0 0.00 0.10 0.07 78 873.7
20190822085554 68 155 5.0 11.0 0.00 0.10 0.07 78 873.8
20190822085054 68 186 4.0 8.0 0.00 0.10 0.07 81 873.8
20190822084552 68 109 6.0 14.0 0.01 0.10 0.07 78 873.8
20190822084053 68 98 7.0 14.0 0.01 0.10 0.07 79 873.9
20190822083552 68 98 3.0 10.0 0.01 0.10 0.07 80 873.9
20190822083051 68 235 2.0 4.0 0.01 0.10 0.07 80 873.8
20190822082551 67 235 1.0 4.0 0.01 0.10 0.07 80 873.8
20190822082050 67 235 1.0 7.0 0.01 0.10 0.07 77 873.7
20190822081550 67 235 1.0 7.0 0.01 0.10 0.07 82 873.7
20190822081047 67 5 0.0 0.0 0.01 0.10 0.07 81 873.8
20190822080544 67 5 0.0 0.0 0.01 0.10 0.07 79 873.7
20190822080043 67 5 0.0 0.0 0.01 0.10 0.07 79 873.8
20190822075541 67 5 0.0 2.0 0.02 0.10 0.07 80 873.8
20190822075042 67 5 1.0 3.0 0.03 0.10 0.07 78 873.8
20190822074542 67 5 1.0 5.0 0.04 0.09 0.06 78 873.8
20190822074041 66 5 9.0 5.0 0.05 0.09 0.06 78 873.8
20190822073543 0 0.0 0.0 0.05 0.09 0.06 1009.8
20190822070128 66 342 8.0 12.0 0.06 0.09 0.06 78 874.6
20190822065629 66 331 10.0 17.0 0.05 0.08 0.05 77 875.1
20190822065130 66 292 14.0 23.0 0.04 0.07 0.04 77 875.4
20190822064626 67 277 19.0 28.0 0.03 0.06 0.03 76 875.5
20190822064126 67 314 22.0 34.0 0.01 0.04 0.01 72 875.4
20190822063624 68 300 22.0 34.0 0.01 0.04 0.01 70 875.1
20190822063124 68 289 23.0 35.0 0.00 0.03 0.00 69 875.2
20190822062623 69 303 23.0 35.0 0.00 0.03 0.00 67 875.0
20190822062122 70 302 21.0 31.0 0.00 0.03 0.00 63 874.9
20190822061623 70 304 20.0 31.0 0.00 0.03 0.00 62 874.7
20190822061122 71 294 17.0 27.0 0.00 0.03 0.00 62 874.8
20190822060622 70 298 16.0 24.0 0.00 0.03 0.00 63 874.8
20190822060123 69 296 15.0 23.0 0.00 0.03 0.00 66 874.9
20190822055624 69 310 13.0 21.0 0.00 0.03 0.03 69 875.1
20190822055123 68 291 12.0 18.0 0.00 0.03 0.03 73 875.3
20190822054625 68 278 13.0 18.0 0.00 0.03 0.03 75 875.4
20190822054123 68 303 13.0 21.0 0.00 0.03 0.03 75 875.4
20190822053622 68 309 13.0 21.0 0.00 0.03 0.03 74 875.5
20190822053122 68 324 14.0 22.0 0.00 0.03 0.03 72 875.7
20190822052622 69 308 15.0 22.0 0.00 0.03 0.03 71 875.9
20190822052124 69 311 16.0 25.0 0.00 0.03 0.03 70 876.0
20190822051623 69 320 17.0 25.0 0.00 0.03 0.03 69 876.0
20190822051123 69 338 15.0 23.0 0.00 0.03 0.03 68 875.8
20190822050623 69 336 13.0 23.0 0.00 0.03 0.03 70 875.9
20190822050122 69 337 12.0 19.0 0.00 0.03 0.03 72 875.9
20190822045623 68 355 13.0 20.0 0.00 0.03 0.03 74 875.9
20190822045122 68 334 14.0 20.0 0.00 0.03 0.03 74 876.0
20190822044622 68 355 15.0 22.0 0.00 0.03 0.03 74 875.9
20190822044123 68 345 14.0 22.0 0.00 0.03 0.03 74 875.7
20190822043624 67 355 14.0 20.0 0.00 0.03 0.03 76 875.8
20190822043122 67 355 16.0 24.0 0.00 0.03 0.03 77 875.7
20190822042622 67 350 16.0 24.0 0.00 0.03 0.03 77 875.7
20190822042123 67 350 16.0 24.0 0.00 0.03 0.03 77 875.5
20190822041622 67 355 17.0 23.0 0.01 0.03 0.03 79 875.4
20190822041123 67 0 18.0 26.0 0.01 0.03 0.03 80 875.4
20190822040621 67 344 19.0 28.0 0.01 0.03 0.03 79 875.5
20190822040121 66 344 18.0 28.0 0.01 0.03 0.03 80 875.5
20190822035620 66 355 17.0 25.0 0.01 0.03 0.03 81 875.5
20190822035120 66 0 18.0 27.0 0.01 0.03 0.03 81 875.6
20190822034621 66 355 19.0 27.0 0.01 0.03 0.03 81 875.5
20190822034120 66 347 19.0 26.0 0.01 0.03 0.03 81 875.5
20190822033619 66 343 19.0 27.0 0.01 0.03 0.03 82 875.5
20190822033119 66 5 20.0 27.0 0.01 0.03 0.03 84 875.6
20190822032620 66 351 21.0 28.0 0.01 0.03 0.03 85 875.6
20190822032121 65 355 22.0 31.0 0.02 0.03 0.03 85 875.7
20190822031620 65 350 22.0 31.0 0.02 0.02 0.02 85 875.6
20190822031120 66 344 22.0 31.0 0.02 0.02 0.02 84 875.6
20190822030621 66 0 21.0 31.0 0.02 0.02 0.02 83 875.6
20190822030120 67 355 21.0 31.0 0.02 0.02 0.02 83 875.6
20190822025622 67 0 22.0 31.0 0.02 0.02 0.02 83 875.6
20190822025120 67 348 22.0 29.0 0.02 0.02 0.02 82 875.5
20190822024621 68 344 21.0 29.0 0.02 0.02 0.02 82 875.3
20190822024120 68 346 20.0 30.0 0.02 0.02 0.02 81 875.3
20190822023621 68 350 22.0 39.0 0.02 0.02 0.02 81 875.0
20190822023118 69 351 24.0 39.0 0.02 0.02 0.02 78 874.9
20190822022618 70 340 23.0 35.0 0.02 0.02 0.02 75 874.6
20190822022119 69 334 24.0 40.0 0.01 0.01 0.01 75 874.5
20190822021618 71 0 26.0 40.0 0.00 0.00 0.00 69 874.4
20190822021118 74 327 26.0 40.0 0.00 0.00 0.00 58 874.3
20190822020619 75 355 26.0 42.0 0.00 0.00 0.00 54 874.2
20190822020117 76 355 23.0 42.0 0.00 0.00 0.00 50 873.9
20190822015618 77 12 19.0 39.0 0.00 0.00 0.00 48 874.0
20190822015119 78 346 20.0 31.0 0.00 0.00 0.00 46 873.9
20190822014618 80 334 14.0 31.0 0.00 0.00 0.00 41 873.8
20190822014118 86 334 7.0 20.0 0.00 0.00 0.00 32 873.6
20190822013619 86 152 8.0 14.0 0.00 0.00 0.00 31 872.4
20190822013119 86 155 9.0 14.0 0.00 0.00 0.00 31 872.2
20190822012619 86 143 9.0 14.0 0.00 0.00 0.00 31 872.1
20190822012116 87 154 9.0 12.0 0.00 0.00 0.00 31 872.1
20190822011617 87 150 9.0 14.0 0.00 0.00 0.00 31 872.1
20190822011116 87 155 9.0 14.0 0.00 0.00 0.00 31 872.0
20190822010613 87 162 9.0 14.0 0.00 0.00 0.00 31 872.0
20190822010114 87 159 9.0 15.0 0.00 0.00 0.00 31 871.9
20190822005615 88 163 10.0 15.0 0.00 0.00 0.00 30 871.7
20190822005113 88 154 11.0 17.0 0.00 0.00 0.00 30 871.5
20190822004614 88 156 11.0 17.0 0.00 0.00 0.00 30 871.5
20190822004115 88 169 11.0 16.0 0.00 0.00 0.00 30 871.5
20190822003614 89 148 11.0 16.0 0.00 0.00 0.00 29 871.6
20190822003114 89 172 11.0 17.0 0.00 0.00 0.00 29 871.6
20190822002613 89 177 12.0 17.0 0.00 0.00 0.00 29 871.5
20190822002114 89 150 13.0 18.0 0.00 0.00 0.00 29 871.3
20190822001615 89 155 13.0 18.0 0.00 0.00 0.00 29 871.4
20190822001114 89 170 12.0 17.0 0.00 0.00 0.00 29 871.5
20190822000614 89 180 13.0 19.0 0.00 0.00 0.00 28 871.4
20190822000115 89 153 14.0 19.0 0.00 0.00 0.00 28 871.3
20190821235615 90 148 14.0 21.0 0.00 0.00 0.00 28 871.2
20190821235113 90 163 14.0 22.0 0.00 0.00 0.00 27 871.2
20190821234614 90 156 12.0 22.0 0.00 0.00 0.00 27 871.3
20190821234112 90 198 11.0 18.0 0.00 0.00 0.00 27 871.3
20190821233611 90 158 13.0 20.0 0.00 0.00 0.00 27 871.3
20190821233112 91 173 13.0 20.0 0.00 0.00 0.00 26 871.2
20190821232613 91 155 11.0 19.0 0.00 0.00 0.00 26 871.2
20190821232111 91 175 13.0 19.0 0.00 0.00 0.00 26 871.3
20190821231611 92 188 14.0 21.0 0.00 0.00 0.00 25 871.4
20190821231111 92 144 11.0 21.0 0.00 0.00 0.00 25 871.5
20190821230613 92 179 11.0 20.0 0.00 0.00 0.00 25 871.5
20190821230117 92 210 11.0 19.0 0.00 0.00 0.00 24 871.6
20190821225612 93 168 11.0 18.0 0.00 0.00 0.00 25 871.6
20190821225111 93 173 12.0 17.0 0.00 0.00 0.00 25 871.7
20190821224612 93 145 12.0 17.0 0.00 0.00 0.00 25 871.6
20190821224111 93 142 12.0 17.0 0.00 0.00 0.00 25 871.7
20190821223611 93 151 13.0 22.0 0.00 0.00 0.00 26 871.7
20190821223111 93 134 14.0 23.0 0.00 0.00 0.00 25 871.7
20190821222612 93 138 13.0 23.0 0.00 0.00 0.00 25 871.7
20190821222111 93 160 10.0 17.0 0.00 0.00 0.00 25 871.7
20190821221607 93 166 10.0 22.0 0.00 0.00 0.00 25 871.8
20190821221107 93 170 14.0 22.0 0.00 0.00 0.00 25 871.9
20190821220606 93 161 16.0 24.0 0.00 0.00 0.00 26 871.9
20190821220105 93 137 15.0 24.0 0.00 0.00 0.00 26 872.0
20190821215606 93 173 14.0 26.0 0.00 0.00 0.00 26 872.0
20190821215107 93 205 13.0 26.0 0.00 0.00 0.00 25 872.2
20190821214606 93 222 12.0 22.0 0.00 0.00 0.00 27 872.1
20190821214105 93 148 14.0 23.0 0.00 0.00 0.00 26 872.2
20190821213604 93 138 15.0 23.0 0.00 0.00 0.00 26 872.2
20190821213103 93 147 15.0 23.0 0.00 0.00 0.00 26 872.3
20190821212609 93 158 14.0 23.0 0.00 0.00 0.00 27 872.4
20190821212104 93 184 14.0 26.0 0.00 0.00 0.00 26 872.5
20190821211604 93 192 13.0 26.0 0.00 0.00 0.00 26 872.6
20190821211104 94 155 12.0 27.0 0.00 0.00 0.00 27 872.5
20190821210604 94 182 14.0 27.0 0.00 0.00 0.00 27 872.6
20190821210104 94 150 13.0 25.0 0.00 0.00 0.00 27 872.6
20190821205601 94 152 10.0 25.0 0.00 0.00 0.00 26 872.8
20190821205101 94 270 7.0 19.0 0.00 0.00 0.00 27 872.9
20190821204601 94 213 9.0 19.0 0.00 0.00 0.00 27 872.9
20190821204101 94 218 11.0 19.0 0.00 0.00 0.00 28 873.0
20190821203601 94 202 10.0 19.0 0.00 0.00 0.00 27 873.2
20190821203101 93 209 11.0 31.0 0.00 0.00 0.00 28 873.2
20190821202602 93 178 12.0 31.0 0.00 0.00 0.00 28 873.3
20190821202101 92 213 9.0 21.0 0.00 0.00 0.00 27 873.3
20190821201601 92 152 9.0 15.0 0.00 0.00 0.00 28 873.4
20190821201103 93 231 7.0 15.0 0.00 0.00 0.00 28 873.4
20190821200559 93 251 7.0 12.0 0.00 0.00 0.00 28 873.5
20190821200059 93 171 8.0 15.0 0.00 0.00 0.00 28 873.6
20190821195600 92 145 10.0 19.0 0.00 0.00 0.00 28 873.7
20190821195101 93 207 10.0 19.0 0.00 0.00 0.00 28 873.8
20190821194559 92 202 9.0 19.0 0.00 0.00 0.00 28 873.8
20190821194100 92 174 10.0 19.0 0.00 0.00 0.00 28 873.8
20190821193557 92 202 10.0 20.0 0.00 0.00 0.00 28 873.9
20190821193058 92 194 9.0 20.0 0.00 0.00 0.00 30 874.1
20190821192557 92 251 10.0 21.0 0.00 0.00 0.00 29 874.1
20190821192058 92 282 11.0 21.0 0.00 0.00 0.00 29 874.1
20190821191557 92 261 11.0 22.0 0.00 0.00 0.00 29 874.2
20190821191057 92 218 11.0 22.0 0.00 0.00 0.00 29 874.3
20190821190557 92 218 11.0 20.0 0.00 0.00 0.00 29 874.4
20190821190057 92 218 10.0 20.0 0.00 0.00 0.00 30 874.5
20190821185557 91 194 10.0 20.0 0.00 0.00 0.00 31 874.6
20190821185058 91 204 11.0 20.0 0.00 0.00 0.00 30 874.7
20190821184555 91 232 10.0 20.0 0.00 0.00 0.00 31 874.7
20190821184056 91 197 10.0 20.0 0.00 0.00 0.00 31 874.7
20190821183555 91 205 12.0 21.0 0.00 0.00 0.00 30 874.9
20190821183056 91 234 13.0 21.0 0.00 0.00 0.00 31 874.9
20190821182556 91 246 11.0 21.0 0.00 0.00 0.00 31 874.9
20190821182055 91 163 11.0 19.0 0.00 0.00 0.00 31 875.1
20190821181555 91 178 10.0 18.0 0.00 0.00 0.00 31 875.1